[[{"header":{"parameterUnit":"m.s-1","parameterCategory":2,"la1":30.2991,"la2":30.254,"lo1":-89.0895,"lo2":-89.0444,"dy":0.0017,"dx":0.0017,"nx":28,"ny":28,"refTime":"2025-07-03T09:00:00:Z","depth":"0","parameterNumber":2,"parameterNumberName":"U-component_of_CURRENTS"},"data":[0,0,0,0,0,0,0,0,0,0,0,0,0,0,0,0,0,0,0,0,0,0,0,0,0,0,0,0,0,0,0,0,0,0,0,0,0,0,0,0,0,0,0,0,0,0,0,0,0,0,0,0,0,0,0,0,0,0,0.2432,0.2432,0,0.2434,0.2434,0.2434,0.2398,0.2397,0.2396,0.2396,0.2419,0.2421,0.2422,0,0,0,0,0,0,0,0,0,0,0,0,0,0.2453,0.2452,0.2432,0.2432,0.2432,0.2434,0.2434,0.2434,0.2398,0.2397,0.2396,0.2395,0.2419,0.2421,0.2422,0,0,0,0,0,0,0,0,0,0,0,0,0,0.2448,0.2452,0.2432,0.2415,0.2413,0.2434,0.2434,0.2434,0.2399,0.2397,0.2396,0.2395,0.2418,0.242,0.2423,0.2464,0,0,0.2429,0.243,0,0,0,0,0,0,0,0,0.2448,0.2447,0.2417,0.2416,0.2414,0.2415,0.245,0.2445,0.2399,0.2404,0.2396,0.2394,0.2421,0.2423,0.2426,0.2465,0.2466,0.243,0.2431,0.2432,0.2433,0,0,0,0,0,0,0,0.2448,0.2447,0.2432,0.2417,0.2416,0.2426,0.2423,0.2449,0.242,0.2403,0.2401,0.2402,0.242,0.2423,0.2426,0.2466,0.243,0.2432,0.2433,0.2434,0.2727,0.2733,0,0,0,0,0,0,0.2447,0.2447,0.2432,0.2432,0.2429,0.2427,0.2424,0.2416,0.2419,0.2419,0.2403,0.2401,0.242,0.2423,0.2427,0.2541,0.2432,0.2434,0.2435,0.2721,0.2728,0.2735,0,0,0,0,0,0,0.2448,0.2446,0.2432,0.2441,0.2439,0.2427,0.2419,0.2416,0.2423,0.2419,0.2418,0.2413,0.2419,0.2424,0.2498,0.2539,0.2435,0.2437,0.2713,0.2723,0.2732,0.2728,0,0,0,0,0,0,0.2448,0.2446,0.2449,0.244,0.2439,0.2459,0.242,0.2417,0.2426,0.2422,0.2428,0.2428,0.2419,0.2495,0.25,0.254,0.2439,0.2705,0.2717,0.2729,0.272,0.2736,0.275,0,0,0,0,0,0.2449,0.2456,0.2448,0.2447,0.244,0.2461,0.2463,0.2449,0.2428,0.2447,0.2475,0.2428,0.2577,0.2501,0.2506,0.2547,0.2699,0.2714,0.2728,0.2713,0.2733,0.275,0,0,0,0,0,0,0.2487,0.2453,0.2444,0.2447,0.2461,0.2455,0.2466,0.246,0.2493,0.2488,0.2484,0.2489,0.2582,0.2595,0.2512,0.2689,0.2642,0.2658,0.2629,0.2648,0.2663,0.2635,0.2441,0,0,0,0,0,0.2493,0.2475,0.2472,0.2479,0.2482,0.2478,0.2485,0.2479,0.25,0.251,0.2522,0.2574,0.2649,0.2667,0.2731,0.2798,0.2819,0.2851,0.2866,0.2877,0.2873,0.296,0.2979,0.2783,0.2783,0.2783,0,0,0.2511,0.2491,0.2483,0.2484,0.2485,0.2502,0.2479,0.2493,0.2515,0.2512,0.2558,0.2621,0.2691,0.2782,0.2825,0.2784,0.2956,0.2896,0.2903,0.2893,0.2977,0.2995,0.301,0.2793,0.2791,0.279,0,0,0.2537,0.252,0.2514,0.2523,0.2527,0.2527,0.2536,0.2545,0.2556,0.2616,0.2651,0.2743,0.2817,0.2884,0.2926,0.3075,0.3044,0.3115,0.3133,0.3218,0.3231,0.3243,0.3304,0.3321,0.3104,0.3104,0.3104,0,0.2565,0.2547,0.2528,0.2535,0.254,0.2541,0.2557,0.258,0.262,0.2649,0.2638,0.2821,0.2866,0.2999,0.3061,0.3096,0.3133,0.3028,0.3225,0.3238,0.325,0.3309,0.3328,0.3106,0.3105,0.3105,0.3105,0,0.2586,0.2577,0.2582,0.2574,0.2591,0.2605,0.2625,0.2657,0.2668,0.2697,0.2823,0.2909,0.301,0.3068,0.3095,0.3239,0.3235,0.3231,0.3141,0.3267,0.3325,0.3344,0.3108,0.3107,0.3107,0.3106,0,0,0.2638,0.2597,0.2602,0.2591,0.2604,0.2617,0.2664,0.2711,0.2741,0.2812,0.2876,0.3039,0.3076,0.3138,0.3205,0.3283,0.3408,0.3289,0.3292,0.3283,0.3583,0.3499,0.3512,0.3422,0.3426,0.3429,0.3587,0,0.2664,0.2654,0.2639,0.2654,0.2651,0.2662,0.2703,0.2751,0.2793,0.2861,0.2968,0.3062,0.3105,0.3157,0.3252,0.3377,0.3461,0.3365,0.3521,0.3526,0.3381,0.3533,0.3363,0.3482,0.3606,0.3609,0.3611,0,0.2698,0.2675,0.2675,0.2658,0.2663,0.2681,0.2728,0.2763,0.286,0.2896,0.3001,0.3071,0.3229,0.323,0.347,0.3403,0.3501,0.3581,0.3589,0.3517,0.3478,0.3387,0.3513,0.3364,0.3641,0.3639,0.3637,0,0.2724,0.2709,0.2695,0.2693,0.2688,0.27,0.271,0.2781,0.2813,0.2916,0.2952,0.3128,0.321,0.337,0.3522,0.351,0.3752,0.3752,0.3773,0.3767,0.3657,0.3634,0.3595,0.3921,0.392,0.392,0.3919,0,0.2749,0.2742,0.2698,0.2692,0.2695,0.2694,0.2726,0.276,0.2823,0.2874,0.2967,0.3046,0.3248,0.3393,0.3538,0.3705,0.3768,0.3804,0.3815,0.3657,0.3634,0.3524,0.3453,0.3926,0.3924,0.3923,0.3922,0,0.2775,0.2748,0.2729,0.2706,0.27,0.2703,0.2704,0.2733,0.2778,0.2847,0.2876,0.3017,0.3191,0.3368,0.3623,0.3706,0.3764,0.3916,0.3698,0.3681,0.3545,0.3481,0.3425,0.3353,0.3986,0.3985,0.3984,0,0.2769,0.276,0.2733,0.2723,0.2706,0.2699,0.2702,0.2721,0.2744,0.2833,0.2871,0.3022,0.3123,0.3421,0.3597,0.3809,0.3715,0.3763,0.3719,0.3528,0.3469,0.3364,0.33,0.3593,0.3589,0.3586,0.3583,0,0.2758,0.2759,0.2746,0.2724,0.2713,0.2695,0.2689,0.2692,0.2726,0.276,0.2823,0.2894,0.3135,0.3251,0.348,0.3609,0.3529,0.3703,0.3577,0.3219,0.3034,0.297,0.3482,0.3554,0.3557,0.3559,0.3561,0.3562,0.2748,0.2748,0.2734,0.2716,0.2699,0.2669,0.2625,0.2628,0.2625,0.2615,0.2739,0.2759,0.2918,0.321,0.3306,0.3304,0.3368,0.3253,0.3217,0.3149,0.2984,0.3414,0.3443,0.3445,0.3447,0.3449,0.345,0,0.2707,0.272,0.2715,0.2673,0.2629,0.2633,0.2595,0.2523,0.2472,0.2501,0.2512,0.2548,0.264,0.2777,0.2877,0.2813,0.2775,0.2743,0.2548,0.2537,0.2984,0.2866,0.2679,0.268,0.268,0.268,0.268,0.268,0.2684,0.2674,0.268,0.2597,0.2561,0.2435,0.2387,0.2302,0.2272,0.2161,0.2115,0.2163,0.2296,0.2367,0.232,0.2323,0.2174,0.209,0.2137,0.2404,0.2448,0.2489,0.236,0.2071,0.2071,0.1602,0.1598,0.1595]},{"header":{"parameterUnit":"m.s-1","parameterCategory":2,"la1":30.2991,"la2":30.254,"lo1":-89.0895,"lo2":-89.0444,"dy":0.0017,"dx":0.0017,"nx":28,"ny":28,"refTime":"2025-07-03T09:00:00:Z","depth":"0","parameterNumber":3,"parameterNumberName":"V-component_of_CURRENTS"},"data":[0,0,0,0,0,0,0,0,0,0,0,0,0,0,0,0,0,0,0,0,0,0,0,0,0,0,0,0,0,0,0,0,0,0,0,0,0,0,0,0,0,0,0,0,0,0,0,0,0,0,0,0,0,0,0,0,0,0,0.0223,0.0223,0,0.0262,0.0263,0.0263,0.0253,0.0252,0.0251,0.0251,0.0196,0.0195,0.0194,0,0,0,0,0,0,0,0,0,0,0,0,0,0.0121,0.0123,0.0223,0.0223,0.0224,0.0262,0.0263,0.0263,0.0253,0.0252,0.0251,0.025,0.0196,0.0195,0.0194,0,0,0,0,0,0,0,0,0,0,0,0,0,0.0164,0.0124,0.0223,0.0223,0.0223,0.0262,0.0263,0.0263,0.0253,0.0252,0.0251,0.025,0.0196,0.0195,0.0194,0.0213,0,0,0.0191,0.0191,0,0,0,0,0,0,0,0,0.0162,0.0168,0.0222,0.0223,0.0223,0.0251,0.0207,0.0242,0.0254,0.0242,0.0251,0.0249,0.0206,0.0204,0.0216,0.021,0.0208,0.0191,0.019,0.019,0.019,0,0,0,0,0,0,0,0.0159,0.0166,0.0239,0.0223,0.0224,0.0215,0.022,0.0214,0.0229,0.0243,0.0243,0.0247,0.0206,0.0218,0.0215,0.0207,0.0191,0.019,0.019,0.0189,0.0265,0.0268,0,0,0,0,0,0,0.0156,0.0164,0.0238,0.024,0.0188,0.0218,0.0223,0.0244,0.0231,0.0229,0.0248,0.0246,0.022,0.0216,0.0213,0.0271,0.019,0.0189,0.0188,0.0263,0.0266,0.0269,0,0,0,0,0,0,0.0154,0.0163,0.0236,0.0201,0.021,0.0221,0.0244,0.0245,0.0252,0.0236,0.0231,0.0252,0.0219,0.0214,0.023,0.0267,0.0189,0.0188,0.0259,0.0264,0.0267,0.0363,0,0,0,0,0,0,0.0151,0.0162,0.0174,0.0202,0.0211,0.0263,0.0245,0.0247,0.0256,0.0255,0.0238,0.0232,0.0218,0.0232,0.0229,0.0264,0.0187,0.0256,0.0261,0.0266,0.0357,0.037,0.0381,0,0,0,0,0,0.0148,0.0163,0.0175,0.0183,0.0229,0.0264,0.0269,0.0272,0.0258,0.0271,0.0273,0.0233,0.0261,0.0233,0.0229,0.0265,0.0254,0.026,0.0266,0.0351,0.0367,0.0381,0,0,0,0,0,0,0.0099,0.0164,0.0177,0.0205,0.0236,0.0262,0.027,0.0274,0.0288,0.0281,0.0261,0.0257,0.0288,0.0267,0.0237,0.0305,0.0253,0.0258,0.032,0.0335,0.0347,0.0343,0.0186,0,0,0,0,0,0.0103,0.0145,0.019,0.0209,0.0229,0.0252,0.0263,0.0272,0.0288,0.0292,0.029,0.0294,0.0313,0.0314,0.0322,0.0351,0.0319,0.0375,0.0388,0.0398,0.0396,0.0393,0.0404,0.0288,0.0288,0.0288,0,0,0.0082,0.0127,0.0144,0.0204,0.0227,0.0274,0.0256,0.028,0.0319,0.0283,0.0328,0.0331,0.0331,0.0377,0.0388,0.036,0.0418,0.0406,0.0414,0.0406,0.04,0.0411,0.042,0.0292,0.0291,0.0291,0,0,0.0077,0.0111,0.0152,0.0195,0.0245,0.0274,0.0284,0.0326,0.0344,0.0391,0.0386,0.0417,0.0433,0.0457,0.0466,0.055,0.0484,0.055,0.0605,0.0603,0.0612,0.0619,0.06,0.0605,0.0555,0.0555,0.0555,0,0.0044,0.0118,0.0161,0.0218,0.0255,0.028,0.0329,0.0362,0.0404,0.0429,0.0414,0.048,0.0479,0.0543,0.0581,0.0577,0.055,0.0546,0.0616,0.0623,0.0628,0.0608,0.0611,0.0561,0.056,0.0559,0.0559,0,0.0084,0.0145,0.0168,0.0267,0.031,0.0351,0.0414,0.0454,0.0479,0.0512,0.0574,0.0591,0.0624,0.0644,0.0637,0.0693,0.0654,0.0631,0.0572,0.0645,0.0619,0.0622,0.0568,0.0566,0.0565,0.0563,0,0,0.0012,0.0168,0.0176,0.0244,0.0343,0.0384,0.046,0.054,0.0587,0.0631,0.0689,0.0748,0.0744,0.0756,0.0757,0.0766,0.0796,0.0718,0.0715,0.0687,0.0772,0.0718,0.0715,0.0773,0.0774,0.0775,0.074,0,0.003,0.0149,0.0223,0.033,0.0402,0.0468,0.0541,0.0612,0.0662,0.0725,0.0756,0.0805,0.0791,0.0807,0.0821,0.0802,0.0804,0.0806,0.0715,0.0713,0.0645,0.0717,0.0713,0.0678,0.0741,0.0741,0.0742,0,0.0058,0.0142,0.0251,0.0401,0.0433,0.0493,0.0611,0.0677,0.0769,0.0803,0.0854,0.0868,0.0916,0.0878,0.0878,0.0873,0.0831,0.0807,0.0804,0.0717,0.0663,0.0615,0.0679,0.0588,0.0744,0.0744,0.0744,0,0.0022,0.0167,0.0258,0.0308,0.0467,0.0517,0.0588,0.0692,0.0755,0.084,0.088,0.0929,0.0947,0.092,0.0885,0.0874,0.0857,0.0832,0.0743,0.0738,0.0699,0.0688,0.0651,0.0816,0.0816,0.0816,0.0816,0,0.0045,0.0122,0.0246,0.0304,0.0403,0.0504,0.0602,0.0679,0.0776,0.0858,0.0903,0.0962,0.0954,0.0951,0.0903,0.0834,0.0867,0.0761,0.0733,0.0734,0.0727,0.0614,0.0565,0.0814,0.0815,0.0815,0.0815,0,0.0036,0.0114,0.0225,0.0361,0.0402,0.0469,0.061,0.0682,0.0763,0.0866,0.0892,0.098,0.0983,0.0956,0.0915,0.0849,0.074,0.0749,0.0744,0.0716,0.0537,0.0495,0.0426,0.041,0.0648,0.0647,0.0646,0,0.0064,0.0116,0.024,0.0296,0.0364,0.0468,0.0546,0.066,0.0739,0.0883,0.0932,0.0974,0.1033,0.0955,0.0851,0.0751,0.0692,0.0651,0.0636,0.0534,0.0467,0.0453,0.0445,0.0626,0.0625,0.0624,0.0623,0,0.0113,0.0133,0.0213,0.0308,0.039,0.0494,0.0607,0.0668,0.0807,0.0899,0.1022,0.1079,0.1021,0.0956,0.0804,0.072,0.0594,0.0623,0.0534,0.046,0.043,0.0398,0.0628,0.0614,0.0615,0.0615,0.0616,0.0616,0.0133,0.0176,0.0252,0.0347,0.0429,0.053,0.0623,0.0738,0.0869,0.103,0.107,0.1171,0.1049,0.0863,0.0733,0.0472,0.0503,0.0399,0.036,0.0359,0.0334,0.053,0.047,0.047,0.0471,0.0471,0.0471,0,0.0177,0.022,0.0299,0.041,0.0492,0.0536,0.0681,0.0777,0.0934,0.1059,0.1172,0.1159,0.0985,0.0785,0.0446,0.026,0.0231,0.0159,0.0153,0.0162,0.0347,0.0336,0.0226,0.0226,0.0226,0.0226,0.0226,0.0226,0.0208,0.0274,0.031,0.0448,0.0523,0.065,0.0737,0.0864,0.0979,0.1116,0.1178,0.1222,0.108,0.0501,0.0119,0.0034,-0.0048,-0.0089,-0.0122,-0.0002,0.0018,0.0037,0.0016,-0.0159,-0.0159,-0.026,-0.0262,-0.0263]}],[{"header":{"parameterUnit":"m.s-1","parameterCategory":2,"la1":30.2991,"la2":30.254,"lo1":-89.0895,"lo2":-89.0444,"dy":0.0017,"dx":0.0017,"nx":28,"ny":28,"refTime":"2025-07-03T09:00:00:Z","depth":"2","parameterNumber":2,"parameterNumberName":"U-component_of_CURRENTS"},"data":[0,0,0,0,0,0,0,0,0,0,0,0,0,0,0,0,0,0,0,0,0,0,0,0,0,0,0,0,0,0,0,0,0,0,0,0,0,0,0,0,0,0,0,0,0,0,0,0,0,0,0,0,0,0,0,0,0,0,0.158,0.158,0,0.1575,0.1575,0.1575,0.1664,0.1666,0.1668,0.1671,0.1729,0.1728,0.1728,0,0,0,0,0,0,0,0,0,0,0,0,0,0.169,0.1687,0.158,0.158,0.158,0.1575,0.1575,0.1575,0.1663,0.1666,0.1669,0.1672,0.1729,0.1729,0.1728,0,0,0,0,0,0,0,0,0,0,0,0,0,0.1659,0.1687,0.158,0.1623,0.1627,0.1575,0.1575,0.1575,0.1662,0.1666,0.167,0.1673,0.173,0.1729,0.1728,0.1648,0,0,0.1724,0.1724,0,0,0,0,0,0,0,0,0.1661,0.1655,0.1617,0.162,0.1625,0.1624,0.1635,0.1602,0.1662,0.1649,0.1671,0.1675,0.1697,0.1699,0.1689,0.1651,0.1654,0.1724,0.1724,0.1723,0.1723,0,0,0,0,0,0,0,0.1663,0.1656,0.1578,0.1617,0.1621,0.1651,0.1651,0.1629,0.1654,0.165,0.1657,0.1655,0.17,0.1689,0.1691,0.1655,0.1724,0.1723,0.1723,0.1722,0.1772,0.1773,0,0,0,0,0,0,0.1657,0.1657,0.1578,0.1578,0.1652,0.1646,0.1646,0.162,0.1653,0.1661,0.1652,0.1659,0.1689,0.1692,0.1694,0.1758,0.1723,0.1722,0.1722,0.177,0.1772,0.1774,0,0,0,0,0,0,0.1659,0.1649,0.1578,0.162,0.1613,0.164,0.1611,0.1618,0.165,0.1654,0.1664,0.1682,0.1692,0.1695,0.1725,0.1755,0.1722,0.1721,0.1767,0.177,0.1773,0.1786,0,0,0,0,0,0,0.1662,0.1649,0.1646,0.1618,0.161,0.1567,0.1608,0.1615,0.1641,0.1651,0.1681,0.1688,0.1695,0.1726,0.1723,0.1753,0.172,0.1765,0.1769,0.1772,0.1783,0.1789,0.1794,0,0,0,0,0,0.1665,0.1638,0.1645,0.1638,0.1598,0.1567,0.1566,0.1599,0.1639,0.1643,0.1685,0.1689,0.1749,0.1725,0.1722,0.1753,0.1763,0.1768,0.1772,0.1781,0.1788,0.1794,0,0,0,0,0,0,0.1717,0.1643,0.1652,0.1615,0.1604,0.1583,0.1598,0.1609,0.1639,0.1668,0.1687,0.1695,0.1741,0.1741,0.1715,0.1785,0.1766,0.177,0.1775,0.1781,0.1786,0.1767,0.1719,0,0,0,0,0,0.1714,0.1663,0.1626,0.1608,0.1605,0.1606,0.1607,0.1616,0.1628,0.1648,0.1684,0.1723,0.1743,0.1761,0.1779,0.1788,0.1801,0.1818,0.1823,0.1827,0.1814,0.186,0.1867,0.1788,0.1788,0.1788,0,0,0.1741,0.1689,0.1672,0.1614,0.1619,0.1598,0.1618,0.1617,0.1617,0.1644,0.1698,0.1736,0.1752,0.1787,0.1808,0.1797,0.1864,0.1833,0.1836,0.182,0.1865,0.1872,0.1879,0.1791,0.1791,0.179,0,0,0.1747,0.1718,0.168,0.1648,0.1625,0.1616,0.1621,0.1621,0.1651,0.1668,0.1715,0.1766,0.1798,0.1822,0.1831,0.1868,0.1892,0.1903,0.1907,0.1952,0.1958,0.1963,0.2013,0.2022,0.1905,0.1905,0.1905,0,0.1792,0.1715,0.1677,0.1629,0.1614,0.1628,0.1606,0.1613,0.1635,0.1662,0.1698,0.1786,0.1804,0.1836,0.1869,0.1876,0.1917,0.1874,0.1956,0.1962,0.1967,0.2016,0.2026,0.1906,0.1906,0.1906,0.1906,0,0.176,0.1704,0.1688,0.1622,0.1607,0.1585,0.1579,0.1605,0.1653,0.1673,0.1744,0.1784,0.1839,0.1867,0.1874,0.1934,0.1958,0.1956,0.193,0.1975,0.2025,0.2035,0.1908,0.1907,0.1907,0.1907,0,0,0.1836,0.169,0.169,0.1656,0.1591,0.1586,0.1582,0.1589,0.1624,0.1678,0.1732,0.1784,0.1842,0.1857,0.1898,0.1939,0.2019,0.1973,0.1975,0.2005,0.2143,0.206,0.2064,0.2047,0.2048,0.2049,0.2171,0,0.1836,0.1745,0.1666,0.1625,0.1589,0.1564,0.1561,0.1574,0.162,0.1685,0.1737,0.1808,0.1826,0.1882,0.1922,0.2008,0.2045,0.1987,0.2109,0.2112,0.2018,0.2071,0.1825,0.1903,0.2181,0.2182,0.2184,0,0.1833,0.1758,0.171,0.1608,0.1601,0.1604,0.1626,0.1609,0.1661,0.1695,0.1762,0.182,0.1901,0.191,0.2042,0.2019,0.2075,0.2125,0.2131,0.2046,0.2046,0.1902,0.1911,0.2201,0.2199,0.2198,0.2197,0,0.1919,0.1794,0.1767,0.173,0.1634,0.1654,0.1642,0.1663,0.1656,0.1736,0.1774,0.1861,0.1945,0.2016,0.2118,0.2103,0.2262,0.2247,0.2212,0.2209,0.2012,0.1987,0.231,0.231,0.231,0.231,0.2309,0,0.1924,0.1894,0.1827,0.1807,0.1799,0.1733,0.1759,0.1746,0.1753,0.1764,0.1816,0.1868,0.1982,0.208,0.2142,0.2219,0.2282,0.2215,0.223,0.2014,0.1989,0.2248,0.2239,0.2314,0.2313,0.2312,0.2312,0,0.1987,0.1939,0.1889,0.1832,0.1832,0.1845,0.1795,0.1785,0.1808,0.1829,0.1855,0.1924,0.2052,0.214,0.2281,0.2256,0.2328,0.2329,0.2069,0.2049,0.2239,0.223,0.2301,0.2299,0.2297,0.2295,0.2294,0,0.1989,0.1973,0.1938,0.1921,0.1904,0.1903,0.1869,0.1835,0.1805,0.1859,0.1861,0.2,0.2064,0.2221,0.2179,0.2234,0.2347,0.2053,0.1943,0.2228,0.2237,0.2231,0.2224,0.1713,0.1707,0.1702,0.1699,0,0.1937,0.1963,0.1908,0.19,0.1893,0.1858,0.1831,0.1819,0.1778,0.1823,0.1886,0.1962,0.2033,0.1965,0.1996,0.1991,0.2016,0.1955,0.2338,0.1741,0.168,0.1687,0.1699,0.1656,0.166,0.1663,0.1666,0.1667,0.1886,0.1852,0.1805,0.1802,0.1797,0.1791,0.1778,0.1751,0.1738,0.1747,0.1843,0.1877,0.1808,0.1733,0.1699,0.1646,0.1762,0.1688,0.1701,0.1719,0.1616,0.1553,0.1488,0.1491,0.1494,0.1497,0.1499,0,0.1746,0.1718,0.1686,0.1661,0.1667,0.1737,0.1695,0.1662,0.1677,0.1673,0.1732,0.1538,0.1455,0.1462,0.1251,0.1205,0.1179,0.1224,0.1162,0.1201,0.1237,0.1109,0.0848,0.0847,0.0847,0.0846,0,0,0.1646,0.1555,0.1546,0.1514,0.1582,0.1562,0.1584,0.1565,0.152,0.1472,0.1435,0.1459,0.1407,0.1136,0.1036,0.0934,0.1095,0.0909,0.1409,0.1375,0.1411,0.1455,0.1295,0,0,0,0,0]},{"header":{"parameterUnit":"m.s-1","parameterCategory":2,"la1":30.2991,"la2":30.254,"lo1":-89.0895,"lo2":-89.0444,"dy":0.0017,"dx":0.0017,"nx":28,"ny":28,"refTime":"2025-07-03T09:00:00:Z","depth":"2","parameterNumber":3,"parameterNumberName":"V-component_of_CURRENTS"},"data":[0,0,0,0,0,0,0,0,0,0,0,0,0,0,0,0,0,0,0,0,0,0,0,0,0,0,0,0,0,0,0,0,0,0,0,0,0,0,0,0,0,0,0,0,0,0,0,0,0,0,0,0,0,0,0,0,0,0,-0.0016,-0.0016,0,-0.0031,-0.0031,-0.003,-0.0014,-0.0013,-0.0013,-0.0013,-0.0095,-0.0097,-0.01,0,0,0,0,0,0,0,0,0,0,0,0,0,-0.0016,-0.0015,-0.0016,-0.0016,-0.0017,-0.0031,-0.0031,-0.003,-0.0014,-0.0013,-0.0013,-0.0013,-0.0094,-0.0097,-0.01,0,0,0,0,0,0,0,0,0,0,0,0,0,-0.0019,-0.0015,-0.0016,-0.0012,-0.0012,-0.0031,-0.0031,-0.003,-0.0014,-0.0013,-0.0013,-0.0012,-0.0093,-0.0097,-0.01,-0.0134,0,0,-0.0112,-0.0114,0,0,0,0,0,0,0,0,-0.0018,-0.0018,-0.0012,-0.0013,-0.0013,-0.0023,-0.0061,-0.0069,-0.0014,-0.001,-0.0013,-0.0012,-0.0079,-0.0084,-0.0083,-0.0138,-0.0141,-0.0112,-0.0115,-0.0116,-0.0117,0,0,0,0,0,0,0,-0.0018,-0.0018,-0.0018,-0.0013,-0.0013,-0.0025,-0.0024,-0.0062,-0.0046,-0.001,-0.001,-0.0017,-0.0079,-0.0079,-0.0085,-0.0143,-0.0112,-0.0116,-0.0118,-0.0119,-0.0219,-0.0219,0,0,0,0,0,0,-0.0021,-0.0017,-0.0018,-0.0019,-0.0018,-0.0026,-0.0024,-0.0017,-0.0044,-0.0048,-0.0017,-0.0016,-0.0073,-0.008,-0.0088,-0.0096,-0.0116,-0.012,-0.0122,-0.0219,-0.0219,-0.022,0,0,0,0,0,0,-0.002,-0.002,-0.0017,-0.0022,-0.0023,-0.0026,-0.0018,-0.0018,-0.0016,-0.0049,-0.0054,-0.0016,-0.0073,-0.0083,-0.0116,-0.01,-0.0121,-0.0125,-0.0218,-0.0219,-0.0219,-0.0134,0,0,0,0,0,0,-0.002,-0.0019,-0.0017,-0.0022,-0.0023,-0.0015,-0.0019,-0.0019,-0.0023,-0.0021,-0.0051,-0.0057,-0.0073,-0.011,-0.012,-0.0106,-0.0128,-0.0218,-0.0218,-0.0219,-0.0136,-0.0131,-0.0127,0,0,0,0,0,-0.002,-0.0015,-0.0017,-0.0018,-0.0018,-0.0015,-0.0016,-0.0016,-0.0023,-0.0014,-0.004,-0.0056,-0.0121,-0.0113,-0.0125,-0.0111,-0.0217,-0.0218,-0.0219,-0.0138,-0.0132,-0.0128,0,0,0,0,0,0,-0.0036,-0.0014,-0.0015,-0.0011,-0.0009,-0.0013,-0.0012,-0.0018,-0.003,-0.0035,-0.0065,-0.0073,-0.0096,-0.0127,-0.0117,-0.0146,-0.0172,-0.0175,-0.0106,-0.0101,-0.0097,-0.0056,-0.0131,0,0,0,0,0,-0.0035,-0.0012,-0.001,-0.001,-0.0005,-0.0011,-0.0013,-0.0013,-0.0027,-0.003,-0.0047,-0.0079,-0.011,-0.0122,-0.0154,-0.0174,-0.02,-0.0175,-0.017,-0.0166,-0.0142,-0.0193,-0.019,-0.0222,-0.0222,-0.0222,0,0,-0.0052,-0.0032,-0.0027,-0.001,-0.0009,0.0014,-0.0009,-0.0008,0.001,-0.0042,-0.0027,-0.0068,-0.0116,-0.0128,-0.0141,-0.0148,-0.0169,-0.0167,-0.0163,-0.0141,-0.0194,-0.019,-0.0187,-0.0223,-0.0223,-0.0223,0,0,-0.0054,-0.0044,-0.0018,-0.0002,0.0009,0.0017,0.0019,0.0022,0.0027,0.0022,-0.0011,-0.0039,-0.0079,-0.0097,-0.0118,-0.0116,-0.015,-0.0134,-0.0068,-0.0117,-0.0114,-0.0112,-0.0126,-0.0126,-0.0124,-0.0124,-0.0123,0,-0.0078,-0.0033,-0.0018,0.0017,0.0035,0.0025,0.0054,0.0058,0.005,0.0056,0.0037,-0.0015,-0.0058,-0.0071,-0.0062,-0.0101,-0.0126,-0.0078,-0.0108,-0.0107,-0.0106,-0.0121,-0.0122,-0.012,-0.012,-0.012,-0.0121,0,-0.0049,-0.0013,0.0001,0.006,0.0081,0.0099,0.0116,0.0132,0.0129,0.013,0.0116,0.006,0.0037,0.0011,-0.0022,-0.0033,-0.0051,-0.0101,-0.0112,-0.0097,-0.0115,-0.0117,-0.0114,-0.0115,-0.0116,-0.0117,0,0,-0.0116,0.0003,0.0003,0.0055,0.0109,0.013,0.0171,0.0206,0.0237,0.0214,0.0243,0.0182,0.0155,0.0129,0.0076,0.004,0.0022,-0.0014,-0.0018,-0.0008,-0.006,-0.0055,-0.0057,-0.0036,-0.0036,-0.0036,-0.0069,0,-0.0104,-0.0011,0.0042,0.012,0.017,0.0205,0.0251,0.0279,0.0295,0.0322,0.0265,0.0257,0.0198,0.0181,0.014,0.0052,0.0018,0.0038,-0.0093,-0.0095,-0.0077,-0.0059,-0.0054,-0.0081,-0.0072,-0.0072,-0.0072,0,-0.0097,-0.0026,0.0061,0.0186,0.0208,0.0252,0.0337,0.0376,0.0411,0.0419,0.0412,0.0373,0.0338,0.0263,0.0153,0.0169,0.0071,-0.0005,-0.0009,-0.003,-0.0094,-0.0102,-0.0086,-0.0076,-0.0076,-0.0076,-0.0075,0,-0.0131,-0.0014,0.0067,0.0104,0.023,0.0273,0.0332,0.0396,0.0441,0.0476,0.0508,0.0459,0.0433,0.0315,0.0188,0.0162,0.0061,-0.0007,-0.009,-0.009,-0.0122,-0.0124,-0.01,-0.01,-0.0099,-0.0099,-0.0099,0,-0.0124,-0.0064,0.0058,0.0101,0.0191,0.0274,0.0359,0.0417,0.0489,0.0557,0.0547,0.0579,0.0439,0.0374,0.0233,0.0096,0.0092,-0.0057,-0.0097,-0.0091,-0.009,-0.0123,-0.0125,-0.0101,-0.01,-0.01,-0.01,0,-0.0159,-0.0079,0.0014,0.0141,0.0183,0.0241,0.0379,0.0444,0.052,0.0608,0.0621,0.0656,0.0591,0.0459,0.0281,0.0163,0.0015,-0.0047,-0.0001,-0.0036,-0.0113,-0.0111,-0.0135,-0.0135,-0.0135,-0.0135,-0.0135,0,-0.0149,-0.0108,0.0019,0.0075,0.0137,0.0236,0.0314,0.0429,0.0512,0.0658,0.0704,0.0698,0.071,0.0508,0.0293,0.0083,0.0029,-0.0058,-0.0118,-0.0079,-0.0117,-0.0114,-0.0112,-0.0126,-0.0126,-0.0126,-0.0126,0,-0.0142,-0.0116,-0.004,0.0067,0.0154,0.0263,0.0389,0.0463,0.0612,0.0711,0.0843,0.087,0.0721,0.0532,0.0271,0.0127,-0.0016,-0.0064,-0.0047,-0.0111,-0.0072,-0.0108,-0.0106,-0.0125,-0.0125,-0.0125,-0.0125,-0.0125,-0.0148,-0.0106,-0.0016,0.0088,0.0182,0.0312,0.0419,0.0554,0.0707,0.0874,0.0893,0.0925,0.0719,0.0384,0.0197,0.0005,-0.0019,-0.0129,-0.0129,-0.0129,-0.0116,-0.0079,-0.0129,-0.0129,-0.0129,-0.0129,-0.0129,0,-0.0117,-0.0066,0.0018,0.0158,0.0262,0.0313,0.0496,0.0609,0.08,0.0874,0.0964,0.078,0.0594,0.0386,0.0088,-0.0091,-0.0094,-0.0132,-0.0129,-0.0129,-0.0129,-0.0115,-0.0128,-0.0128,-0.0128,-0.0129,0,0,-0.0088,-0.0006,0.0044,0.022,0.0309,0.0478,0.0591,0.0729,0.0819,0.0913,0.0904,0.0838,0.0598,0.0365,0.0144,0.0004,-0.0013,-0.0005,0.0006,0.0033,0.0036,-0.0124,-0.0102,0,0,0,0,0]}],[{"header":{"parameterUnit":"m.s-1","parameterCategory":2,"la1":30.2991,"la2":30.254,"lo1":-89.0895,"lo2":-89.0444,"dy":0.0017,"dx":0.0017,"nx":28,"ny":28,"refTime":"2025-07-03T09:00:00:Z","depth":"4","parameterNumber":2,"parameterNumberName":"U-component_of_CURRENTS"},"data":[0,0,0,0,0,0,0,0,0,0,0,0,0,0,0,0,0,0,0,0,0,0,0,0,0,0,0,0,0,0,0,0,0,0,0,0,0,0,0,0,0,0,0,0,0,0,0,0,0,0,0,0,0,0,0,0,0,0,0.0053,0.0054,0,0.0128,0.0129,0.013,0.0206,0.0208,0.0209,0.021,0.0258,0.0258,0.0258,0,0,0,0,0,0,0,0,0,0,0,0,0,-0.0054,-0.0052,0.0053,0.0054,0.0055,0.0128,0.0129,0.013,0.0206,0.0208,0.0209,0.0211,0.0258,0.0258,0.0258,0,0,0,0,0,0,0,0,0,0,0,0,0,0.0,-0.0052,0.0052,0.0105,0.0111,0.0128,0.0129,0.013,0.0206,0.0208,0.021,0.0212,0.0258,0.0258,0.0258,0.0215,0,0,0.0258,0.0258,0,0,0,0,0,0,0,0,-0.0003,0.0004,0.0096,0.0102,0.0108,0.0164,0.0109,0.0158,0.0205,0.0165,0.021,0.0213,0.0225,0.0228,0.0232,0.0217,0.0219,0.0258,0.0258,0.0258,0.0258,0,0,0,0,0,0,0,-0.0007,0.0001,0.0078,0.0097,0.0105,0.0116,0.0126,0.0119,0.0178,0.0169,0.0176,0.019,0.0228,0.0232,0.0233,0.022,0.0258,0.0258,0.0258,0.0258,0.0235,0.0234,0,0,0,0,0,0,-0.0008,-0.0003,0.0076,0.0081,0.0062,0.0117,0.0127,0.014,0.0179,0.0189,0.0188,0.0194,0.0231,0.0233,0.0235,0.0293,0.0258,0.0258,0.0258,0.0235,0.0235,0.0234,0,0,0,0,0,0,-0.0011,-0.0002,0.0073,0.0044,0.0055,0.0117,0.013,0.0141,0.0197,0.0195,0.0204,0.024,0.0233,0.0236,0.0259,0.0291,0.0258,0.0257,0.0236,0.0235,0.0234,0.0339,0,0,0,0,0,0,-0.0015,-0.0004,0.0014,0.0044,0.0057,0.012,0.0129,0.0141,0.0201,0.021,0.0241,0.0245,0.0234,0.0259,0.0259,0.0291,0.0257,0.0237,0.0236,0.0235,0.0337,0.0342,0.0347,0,0,0,0,0,-0.0019,-0.0004,0.0014,0.0025,0.0077,0.0121,0.013,0.0176,0.0202,0.0233,0.0244,0.0247,0.0252,0.0259,0.0259,0.0292,0.0237,0.0236,0.0235,0.0334,0.0341,0.0347,0,0,0,0,0,0,-0.0038,0.0007,0.0027,0.0057,0.0104,0.0137,0.0178,0.0201,0.0234,0.0255,0.0248,0.0252,0.0278,0.0258,0.0266,0.0273,0.0241,0.0239,0.0316,0.0323,0.0328,0.036,0.0257,0,0,0,0,0,-0.0037,-0.0006,0.0036,0.0069,0.01,0.0146,0.0175,0.0208,0.0237,0.0258,0.0275,0.0274,0.026,0.0276,0.026,0.0276,0.0245,0.0288,0.0293,0.0298,0.0319,0.0276,0.028,0.023,0.023,0.023,0,0,-0.0035,-0.0002,0.0015,0.0069,0.0116,0.0167,0.0171,0.0238,0.0278,0.0253,0.0319,0.0299,0.0263,0.0278,0.0287,0.0279,0.0295,0.0297,0.0302,0.032,0.0275,0.028,0.0285,0.0229,0.0229,0.0229,0,0,-0.0007,0.0022,0.0065,0.011,0.0188,0.021,0.0241,0.0299,0.0331,0.0372,0.0351,0.0351,0.0359,0.0333,0.0317,0.0336,0.0317,0.0334,0.0408,0.0365,0.037,0.0374,0.0348,0.0349,0.0347,0.0348,0.0348,0,0.0001,0.0057,0.0086,0.0148,0.0196,0.0238,0.0302,0.0329,0.0383,0.04,0.0413,0.0398,0.0379,0.0368,0.0383,0.0354,0.0336,0.0397,0.0377,0.038,0.0382,0.0354,0.0354,0.0352,0.0352,0.0351,0.0351,0,0.0057,0.012,0.0159,0.0246,0.029,0.0358,0.0401,0.0446,0.0486,0.05,0.0521,0.0486,0.0481,0.0464,0.0444,0.0444,0.0429,0.0385,0.0374,0.0394,0.0363,0.036,0.0359,0.0358,0.0356,0.0355,0,0,0.0046,0.0172,0.0196,0.0258,0.0354,0.0397,0.0462,0.0518,0.0557,0.0591,0.0623,0.0602,0.0597,0.0575,0.0537,0.0513,0.0515,0.0484,0.0479,0.0483,0.0448,0.0402,0.0394,0.0481,0.0481,0.0481,0.0423,0,0.01,0.0223,0.0266,0.0387,0.0458,0.0507,0.0557,0.0604,0.0635,0.0668,0.0639,0.0652,0.0633,0.0638,0.0615,0.0529,0.0514,0.0536,0.0407,0.0403,0.0379,0.0391,0.0481,0.0421,0.0421,0.042,0.042,0,0.0145,0.0227,0.0353,0.0467,0.0503,0.0569,0.0655,0.0701,0.0733,0.0754,0.0768,0.0749,0.0734,0.0701,0.0614,0.0638,0.0572,0.0504,0.0499,0.0422,0.0352,0.0389,0.0415,0.0416,0.0416,0.0416,0.0417,0,0.0131,0.0282,0.0386,0.0435,0.0563,0.0623,0.0682,0.0736,0.0767,0.0813,0.0831,0.0815,0.0798,0.0729,0.0608,0.063,0.0479,0.0474,0.0369,0.0365,0.038,0.0376,0.0414,0.0414,0.0414,0.0414,0.0414,0,0.0154,0.0243,0.04,0.0461,0.0568,0.0649,0.0735,0.0785,0.0836,0.0837,0.0881,0.0816,0.0807,0.0712,0.0622,0.048,0.0487,0.0395,0.0348,0.0424,0.0425,0.0379,0.0376,0.0412,0.0412,0.0413,0.0413,0,0.0119,0.023,0.0354,0.0516,0.0571,0.0646,0.0768,0.0803,0.0872,0.087,0.089,0.084,0.0711,0.0663,0.0511,0.0481,0.0347,0.0283,0.0374,0.033,0.0275,0.0278,0.0224,0.0222,0.022,0.0219,0.0218,0,0.0114,0.0183,0.0376,0.0444,0.053,0.0649,0.0709,0.0812,0.0821,0.0802,0.076,0.0691,0.0633,0.0408,0.0338,0.0235,0.0203,0.0212,0.0276,0.0297,0.0256,0.0262,0.0266,0.0215,0.0214,0.0214,0.0213,0,0.0091,0.0172,0.0261,0.04,0.0504,0.0592,0.0675,0.0667,0.0724,0.0806,0.0652,0.0583,0.0428,0.0312,0.0264,0.0149,0.0267,0.0194,0.0199,0.0259,0.0284,0.0247,0.0254,0.0207,0.0208,0.0209,0.0209,0,0.0063,0.0104,0.0223,0.0338,0.0446,0.0481,0.0542,0.0548,0.0581,0.06,0.0482,0.0378,0.0358,0.0249,0.0122,0.0108,0.0125,0.0185,0.0191,0.0198,0.0213,0.0243,0.0122,0,0,0,0,0,0.0038,0.0068,0.0149,0.0267,0.0359,0.0419,0.0486,0.0528,0.0564,0.0474,0.0515,0.0358,0.0242,0.0128,0.0103,0.0067,0.0101,0.004,0.0168,0.0173,0.018,0.02,0,0,0,0,0,0,0.0014,0.0078,0.0113,0.0176,0.0225,0.0312,0.0333,0.0365,0.0321,0.0361,0.0266,0.0377,0.0216,0.0251,0.0098,0.0089,0.0177,0.0021,0.0022,0.0169,0.0176,0.0181,0.0204,0,0,0,0,0]},{"header":{"parameterUnit":"m.s-1","parameterCategory":2,"la1":30.2991,"la2":30.254,"lo1":-89.0895,"lo2":-89.0444,"dy":0.0017,"dx":0.0017,"nx":28,"ny":28,"refTime":"2025-07-03T09:00:00:Z","depth":"4","parameterNumber":3,"parameterNumberName":"V-component_of_CURRENTS"},"data":[0,0,0,0,0,0,0,0,0,0,0,0,0,0,0,0,0,0,0,0,0,0,0,0,0,0,0,0,0,0,0,0,0,0,0,0,0,0,0,0,0,0,0,0,0,0,0,0,0,0,0,0,0,0,0,0,0,0,0.0702,0.0702,0,0.0615,0.0612,0.061,0.0493,0.0492,0.0491,0.0491,0.0272,0.0267,0.0262,0,0,0,0,0,0,0,0,0,0,0,0,0,0.0695,0.0695,0.0702,0.0702,0.0702,0.0615,0.0612,0.061,0.0493,0.0492,0.0491,0.049,0.0273,0.0267,0.0261,0,0,0,0,0,0,0,0,0,0,0,0,0,0.065,0.0695,0.0702,0.0643,0.0638,0.0615,0.0612,0.0609,0.0493,0.0492,0.0491,0.049,0.0275,0.0268,0.026,0.0234,0,0,0.0237,0.0233,0,0,0,0,0,0,0,0,0.0652,0.0648,0.0652,0.0647,0.0642,0.0575,0.0531,0.0482,0.0493,0.0534,0.0491,0.0489,0.0371,0.0355,0.0324,0.0224,0.0215,0.0236,0.0231,0.0228,0.0226,0,0,0,0,0,0,0,0.0656,0.0651,0.0653,0.0652,0.0646,0.0598,0.0589,0.052,0.0446,0.053,0.0525,0.0537,0.0365,0.0332,0.0318,0.0211,0.0236,0.0229,0.0225,0.0222,0.0018,0.0017,0,0,0,0,0,0,0.0699,0.0655,0.0657,0.0652,0.066,0.06,0.059,0.0587,0.045,0.0433,0.0538,0.0532,0.0345,0.0327,0.0309,0.0205,0.0228,0.0221,0.0216,0.0018,0.0017,0.0017,0,0,0,0,0,0,0.0699,0.0699,0.066,0.0663,0.0656,0.0603,0.0599,0.0586,0.054,0.046,0.0437,0.0508,0.0344,0.032,0.0228,0.0198,0.0217,0.021,0.0019,0.0018,0.0017,0.0037,0,0,0,0,0,0,0.0698,0.0699,0.0701,0.0666,0.0658,0.0632,0.0602,0.0585,0.0557,0.0547,0.0427,0.0406,0.0341,0.024,0.022,0.0187,0.0204,0.002,0.0019,0.0017,0.0037,0.0037,0.0036,0,0,0,0,0,0.0698,0.069,0.0701,0.0702,0.0665,0.0633,0.0622,0.0572,0.0557,0.0527,0.0448,0.0409,0.0217,0.0233,0.021,0.0174,0.0021,0.0019,0.0017,0.0038,0.0037,0.0036,0,0,0,0,0,0,0.0656,0.0679,0.0688,0.068,0.0665,0.0618,0.0609,0.0575,0.0491,0.0477,0.0392,0.0365,0.0273,0.0228,0.0248,0.0114,0.0115,0.0109,0.0138,0.0137,0.0136,0.0139,0.0198,0,0,0,0,0,0.0667,0.0692,0.0681,0.0683,0.0686,0.0652,0.0634,0.0594,0.0533,0.0494,0.0412,0.0329,0.0252,0.0199,0.0124,0.0049,0.0025,0.0014,0.0014,0.0014,0.0002,-0.0054,-0.0061,0.0011,0.0011,0.0011,0,0,0.0666,0.0678,0.0695,0.0683,0.0678,0.0645,0.0633,0.0605,0.0549,0.0485,0.0379,0.0321,0.0233,0.0143,0.0099,0.0097,-0.0013,0.0011,0.0012,-0.0001,-0.0057,-0.0064,-0.007,0.001,0.001,0.001,0,0,0.0668,0.0682,0.0702,0.0683,0.0679,0.0645,0.0641,0.0584,0.0534,0.0445,0.0385,0.0309,0.0189,0.0113,0.0065,0.0019,-0.001,0.0004,-0.001,-0.0063,-0.007,-0.0076,-0.0083,-0.009,-0.0001,-0.0001,-0.0001,0,0.0667,0.0672,0.0694,0.0683,0.0667,0.0647,0.0616,0.0561,0.0465,0.0423,0.041,0.0236,0.0169,0.0056,0.0041,0.0013,0.0001,0.0001,-0.0064,-0.007,-0.0077,-0.0084,-0.0092,-0.0,-0.0,-0.0,-0.0,0,0.0662,0.0661,0.0669,0.0658,0.0629,0.0605,0.0551,0.0496,0.0449,0.0388,0.028,0.0192,0.0095,0.0064,0.0032,-0.0051,-0.0035,-0.0052,-0.0058,-0.0083,-0.0088,-0.0096,0.0001,0.0001,0.0,0.0,0,0,0.0677,0.0673,0.0678,0.0665,0.061,0.0585,0.0509,0.0433,0.0385,0.0289,0.0211,0.0092,0.007,0.0015,-0.003,-0.0083,-0.0125,-0.0081,-0.0084,-0.0081,-0.0206,-0.0149,-0.0152,-0.0146,-0.0149,-0.015,-0.0179,0,0.0671,0.0665,0.0643,0.0599,0.0582,0.053,0.0464,0.0385,0.0317,0.0232,0.0146,0.0065,0.0044,0.0015,-0.0048,-0.0121,-0.0151,-0.0113,-0.019,-0.0192,-0.0133,-0.0163,-0.0157,-0.0185,-0.0188,-0.0189,-0.019,0,0.0661,0.0656,0.064,0.0582,0.0572,0.0533,0.0445,0.0381,0.0266,0.0218,0.0128,0.0063,-0.0043,-0.0036,-0.0169,-0.0139,-0.0162,-0.0205,-0.0208,-0.0174,-0.0152,-0.0166,-0.0206,-0.0205,-0.0203,-0.0202,-0.0201,0,0.0672,0.0641,0.0639,0.0618,0.055,0.0528,0.0488,0.0387,0.0339,0.0229,0.0183,0.0048,-0.0012,-0.0094,-0.0173,-0.0171,-0.0296,-0.0306,-0.0272,-0.0266,-0.0316,-0.031,-0.0373,-0.0373,-0.0372,-0.0372,-0.0372,0,0.0646,0.0648,0.0659,0.0648,0.0622,0.0567,0.0524,0.0461,0.0378,0.0302,0.0205,0.0103,-0.0028,-0.0123,-0.0181,-0.025,-0.0296,-0.0281,-0.0283,-0.0301,-0.0293,-0.032,-0.0313,-0.0373,-0.0373,-0.0373,-0.0373,0,0.0642,0.0664,0.0659,0.0633,0.0633,0.0619,0.058,0.0533,0.047,0.0368,0.0339,0.015,0.002,-0.0074,-0.0216,-0.0246,-0.0322,-0.0316,-0.0298,-0.0297,-0.025,-0.0242,-0.0305,-0.0304,-0.0302,-0.0301,-0.0301,0,0.0628,0.064,0.0671,0.0682,0.068,0.0671,0.0649,0.0592,0.053,0.0367,0.0295,0.0163,0.0041,-0.0128,-0.0213,-0.0282,-0.0281,-0.0296,-0.0307,-0.0253,-0.025,-0.0244,-0.0238,-0.0299,-0.0298,-0.0298,-0.0298,0,0.058,0.0637,0.0636,0.0683,0.0693,0.0674,0.0638,0.0574,0.0466,0.0458,0.0235,0.012,-0.0016,-0.0156,-0.0168,-0.0235,-0.0293,-0.0283,-0.0287,-0.0298,-0.0246,-0.0242,-0.0238,-0.0293,-0.0294,-0.0294,-0.0294,0,0.0558,0.0568,0.0613,0.0639,0.0676,0.062,0.0592,0.0488,0.0426,0.0258,0.0182,0.0028,-0.0046,-0.013,-0.0181,-0.0197,-0.0213,-0.023,-0.0237,-0.0242,-0.0208,-0.0132,-0.0156,0,0,0,0,0,0.0509,0.0532,0.0553,0.0567,0.0612,0.0637,0.0552,0.0504,0.0406,0.0265,0.0225,0.0097,-0.0028,-0.0123,-0.0131,-0.0149,-0.0203,-0.0157,-0.0222,-0.0269,-0.0274,-0.0239,0,0,0,0,0,0,0.0478,0.0516,0.053,0.0521,0.0539,0.0547,0.0489,0.0408,0.0305,0.0222,0.0141,0.0158,0.0031,0.0026,-0.0098,-0.0108,-0.0147,-0.0188,-0.0188,-0.0266,-0.0271,-0.0275,-0.0241,0,0,0,0,0]}]]